Flag for Canada Weather past 2 weeks in Edmonton, Alberta, Canada

Now
27 °F

Overcast.


Feels Like: 15 °F
Forecast: 1 / 28 °F
Wind: 14 mph from Northwest

Location: Edmonton Municipal

Current Time: Feb 28, 2015 at 2:45:28 PM

Latest Report: Feb 28, 2015 at 2:00 PM


Visibility: 9 mi

Pressure: 30.27 "Hg

Humidity: 59%

Dew point: 14 °F

Location of EdmontonLocation

Historic Weather in Edmonton — Graph

°F

Edmonton temperature yesterday

Maximum temperature yesterday: 16 °F (at 3:00 PM)
Minimum temperature yesterday: 9 °F (at 11:00 PM)
Average temperature yesterday: 12 °F

Past Weeks' High & Low Weather Summary

 TemperatureHumidityPressure
High46 °F (Feb 23, 3:00 PM)93% (Feb 17, 1:00 PM)30.76 "Hg (Feb 17, 1:00 PM)
Low-2 °F (Feb 26, 2:00 AM)43% (Feb 21, 3:00 PM)29.81 "Hg (Feb 19, 2:59 AM)
Average22 °F73%30.28 "Hg
* Reported Feb 13 1:00 PM — Feb 28 1:00 PM, Edmonton, Weather by CustomWeather, © 2015

Note: Actual official high and low records may vary slightly from our data, if they occured in-between our weather recording intervals... More about our weather records

Advertising

Edmonton weather history for previous 24 hours

 ConditionsComfort  
Time TempWeatherWind HumidityBarometerVisibility
1:00 PM
Sat, Feb 28
23 °FPartly sunny.18 mph63%30.28 "Hg9 mi
12:00 PM21 °FPartly sunny.10 mph63%30.28 "Hg9 mi
11:00 AM19 °FOvercast.9 mph68%30.29 "Hg9 mi
10:00 AM16 °FOvercast.8 mph73%30.30 "Hg9 mi
9:00 AM14 °FOvercast.9 mph79%30.30 "Hg5 mi
8:51 AM14 °FOvercast.9 mph79%30.15 "Hg5 mi
8:00 AM12 °FOvercast.8 mph79%30.30 "Hg8 mi
7:00 AM12 °FOvercast.7 mph73%30.29 "Hg9 mi
6:00 AM9 °FPassing clouds.2 mph78%30.29 "Hg9 mi
5:00 AM9 °FClear.5 mph72%30.29 "Hg9 mi
4:00 AM7 °FClear.3 mph78%30.30 "Hg9 mi
3:00 AM5 °FClear.3 mph78%30.31 "Hg9 mi
2:00 AM9 °FClear.5 mph78%30.31 "Hg9 mi
1:00 AM7 °FClear.3 mph72%30.32 "Hg9 mi
12:00 AM9 °FClear.5 mph72%30.33 "Hg9 mi
11:00 PM
Fri, Feb 27
9 °FClear.8 mph72%30.33 "Hg9 mi
10:00 PM10 °FClear.8 mph72%30.33 "Hg9 mi
9:00 PM10 °FClear.7 mph72%30.33 "Hg9 mi
8:00 PM12 °FClear.6 mph73%30.34 "Hg9 mi
7:00 PM12 °FClear.7 mph73%30.34 "Hg9 mi
6:00 PM14 °FSunny.6 mph73%30.34 "Hg9 mi
5:00 PM16 °FPassing clouds.10 mph67%30.34 "Hg9 mi
4:00 PM16 °FOvercast.10 mph67%30.33 "Hg9 mi
3:00 PM16 °FOvercast.10 mph67%30.34 "Hg9 mi
2:00 PM14 °FOvercast.13 mph73%30.34 "Hg8 mi
Weather by CustomWeather, © 2015

See weather overviewHow to use our weather pages